Time,TemperatureF,DewpointF,PressureIn,WindDirection,WindDirectionDegrees,WindSpeedMPH,WindSpeedGustMPH,Humidity,HourlyPrecipIn,Conditions,Clouds,dailyrainin,SoftwareType,DateUTC
2013-07-28 00:03:00,0.0,9.2,26.16,NW,320,0.0,0.0,12,0.00,,,-99.99,VWS V12.07,2013-07-28 07:03:00,
2013-07-28 00:09:00,62.1,8.9,26.16,NW,320,0.0,0.0,12,0.00,,,-99.99,VWS V12.07,2013-07-28 07:09:00,
2013-07-28 00:15:00,61.9,8.7,26.13,NW,320,0.0,0.0,12,0.00,,,-99.99,VWS V12.07,2013-07-28 07:15:00,
2013-07-28 00:21:00,61.7,8.6,26.13,NW,320,0.0,0.0,12,0.00,,,-99.99,VWS V12.07,2013-07-28 07:21:00,
2013-07-28 00:27:00,61.3,8.3,26.13,NW,320,0.0,0.0,12,0.00,,,-99.99,VWS V12.07,2013-07-28 07:27:00,
2013-07-28 00:33:00,61.2,8.2,26.13,NW,320,0.0,0.0,12,0.00,,,-99.99,VWS V12.07,2013-07-28 07:33:00,
2013-07-28 00:39:00,61.0,8.0,26.13,NW,320,0.0,0.0,12,0.00,,,-99.99,VWS V12.07,2013-07-28 07:39:00,
2013-07-28 00:45:00,61.0,8.0,26.13,NW,320,0.0,0.0,12,0.00,,,-99.99,VWS V12.07,2013-07-28 07:45:00,
2013-07-28 00:51:00,60.6,7.8,26.13,ENE,57,0.0,0.0,12,0.00,,,-99.99,VWS V12.07,2013-07-28 07:51:00,
2013-07-28 00:57:00,60.6,7.8,26.13,ENE,57,0.0,0.0,12,0.00,,,-99.99,VWS V12.07,2013-07-28 07:57:00,
2013-07-28 01:03:00,60.4,7.6,26.13,ENE,57,0.0,0.0,12,0.00,,,-99.99,VWS V12.07,2013-07-28 08:03:00,
2013-07-28 01:09:00,59.9,7.2,26.13,ENE,57,0.0,0.0,12,0.00,,,-99.99,VWS V12.07,2013-07-28 08:09:00,
2013-07-28 01:15:00,59.9,7.2,26.13,ENE,57,0.0,0.0,12,0.00,,,-99.99,VWS V12.07,2013-07-28 08:15:00,
2013-07-28 01:21:00,59.7,7.0,26.13,ENE,57,0.0,0.0,12,0.00,,,-99.99,VWS V12.07,2013-07-28 08:21:00,
2013-07-28 01:27:00,59.7,7.0,26.13,ENE,57,0.0,0.0,12,0.00,,,-99.99,VWS V12.07,2013-07-28 08:27:00,
2013-07-28 01:33:00,59.7,7.0,26.13,ENE,57,0.0,0.0,12,0.00,,,-99.99,VWS V12.07,2013-07-28 08:33:00,
2013-07-28 01:39:00,59.5,6.9,26.13,ENE,57,0.0,0.0,12,0.00,,,-99.99,VWS V12.07,2013-07-28 08:39:00,
2013-07-28 01:45:00,59.4,6.6,26.13,ENE,57,0.0,0.0,12,0.00,,,-99.99,VWS V12.07,2013-07-28 08:45:00,
2013-07-28 01:51:00,59.2,6.6,26.13,ENE,57,0.0,0.0,12,0.00,,,-99.99,VWS V12.07,2013-07-28 08:51:00,
2013-07-28 01:57:00,58.8,6.3,26.13,ENE,57,0.0,0.0,12,0.00,,,-99.99,VWS V12.07,2013-07-28 08:57:00,
2013-07-28 02:03:00,58.8,6.3,26.13,ENE,57,0.0,0.0,12,0.00,,,-99.99,VWS V12.07,2013-07-28 09:03:00,
2013-07-28 02:09:00,58.8,6.3,26.13,ENE,57,0.0,0.0,12,0.00,,,-99.99,VWS V12.07,2013-07-28 09:09:00,
2013-07-28 02:15:00,58.5,6.3,26.13,ENE,57,0.0,0.0,12,0.00,,,-99.99,VWS V12.07,2013-07-28 09:15:00,
2013-07-28 02:21:00,58.5,6.1,26.13,ENE,57,0.0,0.0,12,0.00,,,-99.99,VWS V12.07,2013-07-28 09:21:00,
2013-07-28 02:27:00,58.6,6.2,26.13,ENE,57,0.0,0.0,12,0.00,,,-99.99,VWS V12.07,2013-07-28 09:27:00,
2013-07-28 02:33:00,58.1,5.6,26.13,ENE,57,0.0,0.0,12,0.00,,,-99.99,VWS V12.07,2013-07-28 09:33:00,
2013-07-28 02:39:00,57.7,5.5,26.13,ENE,57,0.0,0.0,12,0.00,,,-99.99,VWS V12.07,2013-07-28 09:39:00,
2013-07-28 02:45:00,57.9,5.6,26.13,ENE,57,0.0,0.0,12,0.00,,,-99.99,VWS V12.07,2013-07-28 09:45:00,
2013-07-28 02:51:00,57.9,5.6,26.13,ENE,57,0.0,0.0,12,0.00,,,-99.99,VWS V12.07,2013-07-28 09:51:00,
2013-07-28 02:57:00,57.9,5.6,26.13,ENE,57,0.0,0.0,12,0.00,,,-99.99,VWS V12.07,2013-07-28 09:57:00,
2013-07-28 03:03:00,57.7,5.5,26.13,ENE,57,0.0,0.0,12,0.00,,,-99.99,VWS V12.07,2013-07-28 10:03:00,
2013-07-28 03:09:00,57.6,5.3,26.13,ENE,57,0.0,0.0,12,0.00,,,-99.99,VWS V12.07,2013-07-28 10:09:00,
2013-07-28 03:15:00,57.2,5.1,26.13,ENE,57,0.0,0.0,12,0.00,,,-99.99,VWS V12.07,2013-07-28 10:15:00,
2013-07-28 03:21:00,57.4,5.2,26.13,ENE,57,0.0,0.0,12,0.00,,,-99.99,VWS V12.07,2013-07-28 10:21:00,
2013-07-28 03:27:00,56.8,4.8,26.10,ENE,57,0.0,0.0,12,0.00,,,-99.99,VWS V12.07,2013-07-28 10:27:00,
2013-07-28 03:33:00,56.7,4.6,26.10,ENE,57,0.0,0.0,12,0.00,,,-99.99,VWS V12.07,2013-07-28 10:33:00,
2013-07-28 03:35:00,56.7,4.6,26.10,ENE,57,0.0,0.0,12,0.00,,,-99.99,VWS V12.07,2013-07-28 10:35:00,
2013-07-28 03:41:00,56.5,4.5,26.10,ENE,57,0.0,0.0,12,0.00,,,-99.99,VWS V12.07,2013-07-28 10:41:00,
2013-07-28 03:47:00,56.3,4.4,26.13,ENE,57,0.0,0.0,12,0.00,,,-99.99,VWS V12.07,2013-07-28 10:47:00,
2013-07-28 03:53:00,56.3,4.4,26.13,ENE,57,0.0,0.0,12,0.00,,,-99.99,VWS V12.07,2013-07-28 10:53:00,
2013-07-28 03:59:00,55.9,4.1,26.13,ENE,57,0.0,0.0,12,0.00,,,-99.99,VWS V12.07,2013-07-28 10:59:00,
2013-07-28 04:05:00,55.9,4.1,26.13,ENE,57,0.0,0.0,12,0.00,,,-99.99,VWS V12.07,2013-07-28 11:05:00,
2013-07-28 04:11:00,55.8,3.9,26.13,ENE,57,0.0,0.0,12,0.00,,,-99.99,VWS V12.07,2013-07-28 11:11:00,
2013-07-28 04:15:00,55.8,3.9,26.10,ENE,57,0.0,0.0,12,0.00,,,-99.99,VWS V12.07,2013-07-28 11:15:00,
2013-07-28 04:21:00,55.2,3.5,26.10,ENE,57,0.0,0.0,12,0.00,,,-99.99,VWS V12.07,2013-07-28 11:21:00,
2013-07-28 04:27:00,55.0,3.4,26.10,ENE,57,0.0,0.0,12,0.00,,,-99.99,VWS V12.07,2013-07-28 11:27:00,
2013-07-28 04:33:00,55.0,3.2,26.10,ENE,57,0.0,0.0,12,0.00,,,-99.99,VWS V12.07,2013-07-28 11:33:00,
2013-07-28 04:39:00,55.0,3.4,26.10,ENE,57,0.0,0.0,12,0.00,,,-99.99,VWS V12.07,2013-07-28 11:39:00,
2013-07-28 04:45:00,54.7,3.1,26.10,ENE,57,0.0,0.0,12,0.00,,,-99.99,VWS V12.07,2013-07-28 11:45:00,
2013-07-28 04:51:00,54.7,3.1,26.10,ENE,57,0.0,0.0,12,0.00,,,-99.99,VWS V12.07,2013-07-28 11:51:00,
2013-07-28 04:57:00,55.0,3.4,26.10,ENE,57,0.0,0.0,12,0.00,,,-99.99,VWS V12.07,2013-07-28 11:57:00,
2013-07-28 05:03:00,54.7,3.2,26.10,ENE,57,0.0,0.0,12,0.00,,,-99.99,VWS V12.07,2013-07-28 12:03:00,
2013-07-28 05:09:00,54.7,3.1,26.10,ENE,57,0.0,0.0,12,0.00,,,-99.99,VWS V12.07,2013-07-28 12:09:00,
2013-07-28 05:15:00,54.7,3.1,26.10,ENE,57,0.0,0.0,12,0.00,,,-99.99,VWS V12.07,2013-07-28 12:15:00,
2013-07-28 05:21:00,54.5,3.1,26.10,ENE,57,0.0,0.0,12,0.00,,,-99.99,VWS V12.07,2013-07-28 12:21:00,
2013-07-28 05:27:00,54.5,2.9,26.13,ENE,57,0.0,0.0,12,0.00,,,-99.99,VWS V12.07,2013-07-28 12:27:00,
2013-07-28 05:33:00,54.3,2.7,26.13,ENE,57,0.0,0.0,12,0.00,,,-99.99,VWS V12.07,2013-07-28 12:33:00,
2013-07-28 05:39:00,54.1,2.7,26.13,ENE,57,0.0,0.0,12,0.00,,,-99.99,VWS V12.07,2013-07-28 12:39:00,
2013-07-28 05:45:00,53.8,2.5,26.13,ENE,57,0.0,0.0,12,0.00,,,-99.99,VWS V12.07,2013-07-28 12:45:00,
2013-07-28 05:51:00,53.8,2.4,26.13,ENE,57,0.0,0.0,12,0.00,,,-99.99,VWS V12.07,2013-07-28 12:51:00,
2013-07-28 05:57:00,53.6,2.2,26.13,ENE,57,0.0,0.0,12,0.00,,,-99.99,VWS V12.07,2013-07-28 12:57:00,
2013-07-28 06:03:00,53.4,2.1,26.13,ENE,57,0.0,0.0,12,0.00,,,-99.99,VWS V12.07,2013-07-28 13:03:00,
2013-07-28 06:09:00,53.6,2.2,26.13,ENE,57,0.0,0.0,12,0.00,,,-99.99,VWS V12.07,2013-07-28 13:09:00,
2013-07-28 06:15:00,53.6,2.2,26.13,ENE,57,0.0,0.0,12,0.00,,,-99.99,VWS V12.07,2013-07-28 13:15:00,
2013-07-28 06:21:00,53.8,2.4,26.13,ENE,57,0.0,0.0,12,0.00,,,-99.99,VWS V12.07,2013-07-28 13:21:00,
2013-07-28 06:27:00,53.6,2.2,26.13,ENE,57,0.0,0.0,12,0.00,,,-99.99,VWS V12.07,2013-07-28 13:27:00,
2013-07-28 06:33:00,54.0,2.4,26.13,ENE,57,0.0,0.0,12,0.00,,,-99.99,VWS V12.07,2013-07-28 13:33:00,
2013-07-28 06:39:00,53.8,2.4,26.13,ENE,57,0.0,0.0,12,0.00,,,-99.99,VWS V12.07,2013-07-28 13:39:00,
2013-07-28 06:45:00,54.0,2.5,26.13,ENE,57,0.0,0.0,12,0.00,,,-99.99,VWS V12.07,2013-07-28 13:45:00,
2013-07-28 06:51:00,54.0,2.5,26.13,ENE,57,0.0,0.0,12,0.00,,,-99.99,VWS V12.07,2013-07-28 13:51:00,
2013-07-28 06:57:00,54.3,2.9,26.13,ENE,57,0.0,0.0,12,0.00,,,-99.99,VWS V12.07,2013-07-28 13:57:00,
2013-07-28 07:03:00,54.1,3.1,26.13,ENE,57,0.0,0.0,12,0.00,,,-99.99,VWS V12.07,2013-07-28 14:03:00,
2013-07-28 07:09:00,55.6,3.7,26.13,ENE,57,0.0,0.0,12,0.00,,,-99.99,VWS V12.07,2013-07-28 14:09:00,
2013-07-28 07:15:00,56.3,4.4,26.13,ENE,57,0.0,0.0,12,0.00,,,-99.99,VWS V12.07,2013-07-28 14:15:00,
2013-07-28 07:21:00,56.7,4.8,26.13,ENE,57,0.0,0.0,12,0.00,,,-99.99,VWS V12.07,2013-07-28 14:21:00,
2013-07-28 07:27:00,57.6,5.2,26.13,ENE,57,0.0,0.0,12,0.00,,,-99.99,VWS V12.07,2013-07-28 14:27:00,
2013-07-28 07:33:00,58.1,5.9,26.13,ENE,57,0.0,0.0,12,0.00,,,-99.99,VWS V12.07,2013-07-28 14:33:00,
2013-07-28 07:39:00,58.8,6.3,26.13,ENE,57,0.0,0.0,12,0.00,,,-99.99,VWS V12.07,2013-07-28 14:39:00,
2013-07-28 07:45:00,59.5,6.8,26.13,ENE,57,0.0,0.0,12,0.00,,,-99.99,VWS V12.07,2013-07-28 14:45:00,
2013-07-28 07:51:00,60.4,7.3,26.13,ENE,57,0.0,0.0,12,0.00,,,-99.99,VWS V12.07,2013-07-28 14:51:00,
2013-07-28 07:57:00,61.3,8.0,26.13,ENE,57,0.0,0.0,12,0.00,,,-99.99,VWS V12.07,2013-07-28 14:57:00,
2013-07-28 08:03:00,62.2,8.9,26.13,ENE,57,0.0,0.0,12,0.00,,,-99.99,VWS V12.07,2013-07-28 15:03:00,
2013-07-28 08:09:00,63.1,9.4,26.13,ENE,57,0.0,0.0,12,0.00,,,-99.99,VWS V12.07,2013-07-28 15:09:00,
2013-07-28 08:15:00,64.2,10.7,26.13,ENE,57,0.0,0.0,12,0.00,,,-99.99,VWS V12.07,2013-07-28 15:15:00,
2013-07-28 08:21:00,65.5,11.3,26.13,ENE,57,0.0,0.0,12,0.00,,,-99.99,VWS V12.07,2013-07-28 15:21:00,
2013-07-28 08:27:00,66.4,13.0,26.13,ENE,57,0.0,0.0,12,0.00,,,-99.99,VWS V12.07,2013-07-28 15:27:00,
2013-07-28 08:33:00,70.0,14.2,26.13,ENE,57,0.0,0.0,12,0.00,,,-99.99,VWS V12.07,2013-07-28 15:33:00,
2013-07-28 08:39:00,72.5,16.1,26.13,East,97,0.0,0.0,12,0.00,,,-99.99,VWS V12.07,2013-07-28 15:39:00,
2013-07-28 08:45:00,72.9,17.3,26.13,NNE,14,0.0,4.0,12,0.00,,,-99.99,VWS V12.07,2013-07-28 15:45:00,
2013-07-28 08:51:00,73.0,17.6,26.13,NW,320,4.3,4.9,12,0.00,,,-99.99,VWS V12.07,2013-07-28 15:51:00,
2013-07-28 08:57:00,73.6,18.0,26.13,WSW,257,0.0,4.9,12,0.00,,,-99.99,VWS V12.07,2013-07-28 15:57:00,
2013-07-28 09:03:00,74.3,18.6,26.13,NNW,327,0.0,7.6,12,0.00,,,-99.99,VWS V12.07,2013-07-28 16:03:00,
2013-07-28 09:09:00,75.0,19.0,26.13,WNW,293,0.0,7.6,12,0.00,,,-99.99,VWS V12.07,2013-07-28 16:09:00,
2013-07-28 09:15:00,75.4,19.1,26.13,WNW,284,0.0,7.6,12,0.00,,,-99.99,VWS V12.07,2013-07-28 16:15:00,
2013-07-28 09:21:00,75.6,19.4,26.13,WNW,282,3.8,3.8,12,0.00,,,-99.99,VWS V12.07,2013-07-28 16:21:00,
2013-07-28 09:27:00,75.9,19.7,26.13,NW,305,3.2,3.2,12,0.00,,,-99.99,VWS V12.07,2013-07-28 16:27:00,
2013-07-28 09:33:00,76.5,20.1,26.13,NE,41,6.4,6.4,12,0.00,,,-99.99,VWS V12.07,2013-07-28 16:33:00,
2013-07-28 09:39:00,76.8,20.4,26.13,NW,326,2.7,6.3,12,0.00,,,-99.99,VWS V12.07,2013-07-28 16:39:00,
2013-07-28 09:45:00,77.2,20.7,26.13,WNW,292,0.0,3.1,12,0.00,,,-99.99,VWS V12.07,2013-07-28 16:45:00,
2013-07-28 09:51:00,77.4,20.7,26.13,WSW,254,3.8,4.0,12,0.00,,,-99.99,VWS V12.07,2013-07-28 16:51:00,
2013-07-28 09:57:00,77.5,21.0,26.13,SW,229,0.0,5.4,12,0.00,,,-99.99,VWS V12.07,2013-07-28 16:57:00,
2013-07-28 10:03:00,78.3,21.4,26.13,West,268,0.0,3.6,12,0.00,,,-99.99,VWS V12.07,2013-07-28 17:03:00,
2013-07-28 10:09:00,78.3,21.7,26.13,NW,309,0.0,4.5,12,0.00,,,-99.99,VWS V12.07,2013-07-28 17:09:00,
2013-07-28 10:15:00,78.8,22.0,26.13,West,268,0.0,4.5,12,0.00,,,-99.99,VWS V12.07,2013-07-28 17:15:00,
2013-07-28 10:21:00,79.0,22.1,26.13,WSW,257,3.8,4.0,12,0.00,,,-99.99,VWS V12.07,2013-07-28 17:21:00,
2013-07-28 10:27:00,79.2,22.2,26.13,West,279,3.8,5.8,12,0.00,,,-99.99,VWS V12.07,2013-07-28 17:27:00,
2013-07-28 10:33:00,79.2,22.4,26.13,West,273,0.0,6.3,12,0.00,,,-99.99,VWS V12.07,2013-07-28 17:33:00,
2013-07-28 10:39:00,80.1,23.2,26.13,West,274,4.3,4.3,12,0.00,,,-99.99,VWS V12.07,2013-07-28 17:39:00,
2013-07-28 10:45:00,80.6,23.4,26.13,West,270,4.8,4.8,12,0.00,,,-99.99,VWS V12.07,2013-07-28 17:45:00,
2013-07-28 10:51:00,81.7,24.3,26.13,West,265,4.3,5.8,12,0.00,,,-99.99,VWS V12.07,2013-07-28 17:51:00,
2013-07-28 10:57:00,82.8,25.3,26.13,West,273,2.7,5.8,12,0.00,,,-99.99,VWS V12.07,2013-07-28 17:57:00,
2013-07-28 11:03:00,83.3,25.9,26.13,West,265,3.8,4.0,12,0.00,,,-99.99,VWS V12.07,2013-07-28 18:03:00,
2013-07-28 11:09:00,84.4,26.1,26.13,WNW,284,0.0,5.4,12,0.00,,,-99.99,VWS V12.07,2013-07-28 18:09:00,
2013-07-28 11:15:00,85.1,27.0,26.13,WSW,255,9.1,9.1,12,0.00,,,-99.99,VWS V12.07,2013-07-28 18:15:00,
2013-07-28 11:21:00,85.5,27.3,26.13,West,264,3.8,3.8,12,0.00,,,-99.99,VWS V12.07,2013-07-28 18:21:00,
2013-07-28 11:27:00,85.5,27.1,26.13,WNW,291,4.3,4.9,12,0.00,,,-99.99,VWS V12.07,2013-07-28 18:27:00,
2013-07-28 11:33:00,85.8,27.3,26.13,West,262,3.8,5.8,12,0.00,,,-99.99,VWS V12.07,2013-07-28 18:33:00,
2013-07-28 11:39:00,86.5,28.0,26.13,West,274,0.0,0.0,12,0.00,,,-99.99,VWS V12.07,2013-07-28 18:39:00,
2013-07-28 11:45:00,87.1,28.4,26.13,WNW,283,0.0,4.0,12,0.00,,,-99.99,VWS V12.07,2013-07-28 18:45:00,
2013-07-28 11:51:00,87.1,28.4,26.13,WSW,257,3.2,5.4,12,0.00,,,-99.99,VWS V12.07,2013-07-28 18:51:00,
2013-07-28 11:57:00,86.9,28.2,26.13,West,281,4.8,5.8,12,0.00,,,-99.99,VWS V12.07,2013-07-28 18:57:00,
2013-07-28 12:03:00,86.9,28.4,26.13,West,271,3.2,6.7,12,0.00,,,-99.99,VWS V12.07,2013-07-28 19:03:00,
2013-07-28 12:09:00,86.7,28.4,26.13,West,275,3.8,6.7,12,0.00,,,-99.99,VWS V12.07,2013-07-28 19:09:00,
2013-07-28 12:15:00,86.5,28.1,26.13,WNW,301,3.8,6.7,12,0.00,,,-99.99,VWS V12.07,2013-07-28 19:15:00,
2013-07-28 12:21:00,86.2,27.7,26.13,West,265,0.0,4.0,12,0.00,,,-99.99,VWS V12.07,2013-07-28 19:21:00,
2013-07-28 12:27:00,86.9,28.1,26.13,West,273,2.7,5.4,12,0.00,,,-99.99,VWS V12.07,2013-07-28 19:27:00,
2013-07-28 12:33:00,86.5,28.1,26.13,WNW,290,2.7,5.8,12,0.00,,,-99.99,VWS V12.07,2013-07-28 19:33:00,
2013-07-28 12:39:00,86.9,28.4,26.13,WNW,282,3.8,3.8,12,0.00,,,-99.99,VWS V12.07,2013-07-28 19:39:00,
2013-07-28 12:45:00,86.5,28.0,26.13,West,271,4.3,4.9,12,0.00,,,-99.99,VWS V12.07,2013-07-28 19:45:00,
2013-07-28 12:51:00,86.4,27.8,26.13,SW,228,7.0,7.0,12,0.00,,,-99.99,VWS V12.07,2013-07-28 19:51:00,
2013-07-28 12:57:00,86.2,27.4,26.13,WNW,295,3.8,5.8,12,0.00,,,-99.99,VWS V12.07,2013-07-28 19:57:00,
2013-07-28 13:03:00,85.6,27.4,26.13,West,261,5.9,5.9,12,0.00,,,-99.99,VWS V12.07,2013-07-28 20:03:00,
2013-07-28 13:09:00,85.5,27.1,26.13,WNW,290,3.8,5.8,12,0.00,,,-99.99,VWS V12.07,2013-07-28 20:09:00,
2013-07-28 13:15:00,86.2,27.7,26.13,WNW,284,5.9,5.9,12,0.00,,,-99.99,VWS V12.07,2013-07-28 20:15:00,
2013-07-28 13:21:00,85.1,27.0,26.13,WSW,258,6.4,6.4,12,0.00,,,-99.99,VWS V12.07,2013-07-28 20:21:00,
2013-07-28 13:27:00,85.6,27.1,26.13,WNW,287,4.3,5.8,12,0.00,,,-99.99,VWS V12.07,2013-07-28 20:27:00,
2013-07-28 13:33:00,85.6,27.3,26.13,West,275,4.8,5.8,12,0.00,,,-99.99,VWS V12.07,2013-07-28 20:33:00,
2013-07-28 13:39:00,84.9,26.6,26.13,WNW,295,0.0,10.1,12,0.00,,,-99.99,VWS V12.07,2013-07-28 20:39:00,
2013-07-28 13:45:00,85.1,26.8,26.13,West,264,4.8,5.8,12,0.00,,,-99.99,VWS V12.07,2013-07-28 20:45:00,
2013-07-28 13:51:00,84.6,26.6,26.13,West,273,6.4,6.4,12,0.00,,,-99.99,VWS V12.07,2013-07-28 20:51:00,
2013-07-28 13:57:00,84.9,26.8,26.13,WSW,257,9.1,9.1,12,0.00,,,-99.99,VWS V12.07,2013-07-28 20:57:00,
2013-07-28 14:03:00,85.3,27.1,26.13,WSW,248,3.2,4.9,12,0.00,,,-99.99,VWS V12.07,2013-07-28 21:03:00,
2013-07-28 14:09:00,85.1,27.0,26.13,SW,229,3.2,5.4,12,0.00,,,-99.99,VWS V12.07,2013-07-28 21:09:00,
2013-07-28 14:15:00,85.3,27.0,26.13,WSW,240,3.2,6.3,12,0.00,,,-99.99,VWS V12.07,2013-07-28 21:15:00,
2013-07-28 14:21:00,86.0,27.5,26.13,NW,305,4.8,8.7,12,0.00,,,-99.99,VWS V12.07,2013-07-28 21:21:00,
2013-07-28 14:27:00,85.6,27.1,26.13,West,279,4.3,8.7,12,0.00,,,-99.99,VWS V12.07,2013-07-28 21:27:00,
2013-07-28 14:33:00,85.3,27.0,26.13,WSW,252,5.9,8.7,12,0.00,,,-99.99,VWS V12.07,2013-07-28 21:33:00,
2013-07-28 14:39:00,85.6,27.3,26.13,West,276,0.0,8.7,12,0.00,,,-99.99,VWS V12.07,2013-07-28 21:39:00,
2013-07-28 14:45:00,85.5,26.7,26.10,WNW,297,0.0,8.3,12,0.00,,,-99.99,VWS V12.07,2013-07-28 21:45:00,
2013-07-28 14:51:00,86.0,27.5,26.10,WNW,289,3.8,8.3,12,0.00,,,-99.99,VWS V12.07,2013-07-28 21:51:00,
2013-07-28 14:57:00,85.6,27.3,26.10,SW,235,10.5,10.5,12,0.00,,,-99.99,VWS V12.07,2013-07-28 21:57:00,
2013-07-28 15:03:00,85.8,27.4,26.10,West,271,7.0,8.3,12,0.00,,,-99.99,VWS V12.07,2013-07-28 22:03:00,
2013-07-28 15:09:00,85.8,27.4,26.10,WSW,242,3.2,8.3,12,0.00,,,-99.99,VWS V12.07,2013-07-28 22:09:00,
2013-07-28 15:15:00,86.0,27.7,26.10,West,268,6.4,8.3,12,0.00,,,-99.99,VWS V12.07,2013-07-28 22:15:00,
2013-07-28 15:21:00,86.5,28.0,26.10,West,267,4.3,5.4,12,0.00,,,-99.99,VWS V12.07,2013-07-28 22:21:00,
2013-07-28 15:27:00,86.7,28.0,26.10,West,270,6.4,6.4,12,0.00,,,-99.99,VWS V12.07,2013-07-28 22:27:00,
2013-07-28 15:33:00,86.9,28.0,26.10,WNW,290,3.8,6.3,12,0.00,,,-99.99,VWS V12.07,2013-07-28 22:33:00,
2013-07-28 15:39:00,86.4,27.7,26.10,WNW,297,4.8,6.3,12,0.00,,,-99.99,VWS V12.07,2013-07-28 22:39:00,
2013-07-28 15:45:00,86.2,27.5,26.10,West,272,4.3,5.8,12,0.00,,,-99.99,VWS V12.07,2013-07-28 22:45:00,
2013-07-28 15:51:00,86.2,27.3,26.10,WNW,296,3.2,6.3,12,0.00,,,-99.99,VWS V12.07,2013-07-28 22:51:00,
2013-07-28 15:57:00,86.0,27.5,26.10,West,279,7.5,7.5,12,0.00,,,-99.99,VWS V12.07,2013-07-28 22:57:00,
2013-07-28 16:03:00,85.5,27.3,26.10,West,279,3.2,4.9,12,0.00,,,-99.99,VWS V12.07,2013-07-28 23:03:00,
2013-07-28 16:09:00,86.0,28.0,26.10,West,276,6.4,6.4,12,0.00,,,-99.99,VWS V12.07,2013-07-28 23:09:00,
2013-07-28 16:15:00,87.4,28.6,26.10,West,263,4.8,6.3,12,0.00,,,-99.99,VWS V12.07,2013-07-28 23:15:00,
2013-07-28 16:21:00,86.9,28.1,26.10,WNW,291,3.2,4.9,12,0.00,,,-99.99,VWS V12.07,2013-07-28 23:21:00,
2013-07-28 16:27:00,87.3,28.5,26.10,West,274,4.3,4.9,12,0.00,,,-99.99,VWS V12.07,2013-07-28 23:27:00,
2013-07-28 16:33:00,87.1,28.5,26.10,West,278,0.0,5.8,12,0.00,,,-99.99,VWS V12.07,2013-07-28 23:33:00,
2013-07-28 16:39:00,87.3,28.8,26.10,West,274,4.3,4.9,12,0.00,,,-99.99,VWS V12.07,2013-07-28 23:39:00,
2013-07-28 16:45:00,87.6,28.8,26.10,West,260,4.8,5.4,12,0.00,,,-99.99,VWS V12.07,2013-07-28 23:45:00,
2013-07-28 16:51:00,87.1,28.6,26.10,WSW,256,4.8,5.4,12,0.00,,,-99.99,VWS V12.07,2013-07-28 23:51:00,
2013-07-28 16:57:00,87.6,28.8,26.10,West,270,4.3,5.8,12,0.00,,,-99.99,VWS V12.07,2013-07-28 23:57:00,
2013-07-28 17:03:00,87.4,28.6,26.10,West,268,4.3,6.3,12,0.00,,,-99.99,VWS V12.07,2013-07-29 00:03:00,
2013-07-28 17:09:00,87.4,28.6,26.10,West,261,4.3,6.3,12,0.00,,,-99.99,VWS V12.07,2013-07-29 00:09:00,
2013-07-28 17:15:00,87.1,28.6,26.10,SW,229,7.0,7.0,12,0.00,,,-99.99,VWS V12.07,2013-07-29 00:15:00,
2013-07-28 17:21:00,86.4,27.8,26.10,West,270,0.0,3.1,12,0.00,,,-99.99,VWS V12.07,2013-07-29 00:21:00,
2013-07-28 17:27:00,85.8,27.5,26.10,West,263,3.8,6.3,12,0.00,,,-99.99,VWS V12.07,2013-07-29 00:27:00,
2013-07-28 17:33:00,86.2,27.5,26.10,WSW,250,0.0,6.3,12,0.00,,,-99.99,VWS V12.07,2013-07-29 00:33:00,
2013-07-28 17:39:00,84.4,26.4,26.10,WNW,282,0.0,0.0,12,0.00,,,-99.99,VWS V12.07,2013-07-29 00:39:00,
2013-07-28 17:45:00,85.3,26.6,26.10,WSW,255,3.2,4.0,12,0.00,,,-99.99,VWS V12.07,2013-07-29 00:45:00,
2013-07-28 17:51:00,85.5,27.1,26.10,West,265,3.8,4.9,12,0.00,,,-99.99,VWS V12.07,2013-07-29 00:51:00,
2013-07-28 17:57:00,85.1,24.7,26.10,NW,308,0.0,4.9,12,0.00,,,-99.99,VWS V12.07,2013-07-29 00:57:00,
2013-07-28 18:03:00,82.8,25.0,26.10,WNW,284,0.0,3.6,12,0.00,,,-99.99,VWS V12.07,2013-07-29 01:03:00,
2013-07-28 18:09:00,82.0,23.6,26.10,WNW,286,0.0,3.6,12,0.00,,,-99.99,VWS V12.07,2013-07-29 01:09:00,
2013-07-28 18:15:00,81.3,24.0,26.10,West,275,0.0,3.6,12,0.00,,,-99.99,VWS V12.07,2013-07-29 01:15:00,
2013-07-28 18:21:00,81.5,24.3,26.10,WNW,295,0.0,5.4,12,0.00,,,-99.99,VWS V12.07,2013-07-29 01:21:00,
2013-07-28 18:27:00,81.1,24.2,26.10,West,272,0.0,5.4,12,0.00,,,-99.99,VWS V12.07,2013-07-29 01:27:00,
2013-07-28 18:33:00,79.5,22.6,26.10,NW,315,2.7,5.8,12,0.00,,,-99.99,VWS V12.07,2013-07-29 01:33:00,
2013-07-28 18:39:00,77.9,21.2,26.10,NW,310,0.0,0.0,12,0.00,,,-99.99,VWS V12.07,2013-07-29 01:39:00,
2013-07-28 18:47:00,77.2,20.4,26.10,WNW,290,0.0,0.0,12,0.00,,,-99.99,VWS V12.07,2013-07-29 01:47:00,
2013-07-28 18:53:00,76.6,20.3,26.10,WNW,288,0.0,0.0,12,0.00,,,-99.99,VWS V12.07,2013-07-29 01:53:00,
2013-07-28 18:59:00,76.5,20.1,26.10,WNW,300,0.0,0.0,12,0.00,,,-99.99,VWS V12.07,2013-07-29 01:59:00,
2013-07-28 19:05:00,75.7,19.6,26.10,NW,310,0.0,0.0,12,0.00,,,-99.99,VWS V12.07,2013-07-29 02:05:00,
2013-07-28 19:11:00,76.1,19.7,26.10,NW,323,0.0,0.0,12,0.00,,,-99.99,VWS V12.07,2013-07-29 02:11:00,
2013-07-28 19:17:00,75.7,19.6,26.10,NNW,348,0.0,2.7,12,0.00,,,-99.99,VWS V12.07,2013-07-29 02:17:00,
2013-07-28 19:23:00,75.0,19.0,26.10,NNW,340,0.0,0.0,12,0.00,,,-99.99,VWS V12.07,2013-07-29 02:23:00,
2013-07-28 19:29:00,73.9,17.9,26.10,NNW,340,0.0,0.0,12,0.00,,,-99.99,VWS V12.07,2013-07-29 02:29:00,
2013-07-28 19:35:00,72.9,17.3,26.10,NNW,340,0.0,0.0,12,0.00,,,-99.99,VWS V12.07,2013-07-29 02:35:00,
2013-07-28 19:43:00,72.0,16.8,26.10,NNW,340,0.0,0.0,12,0.00,,,-99.99,VWS V12.07,2013-07-29 02:43:00,
2013-07-28 19:49:00,71.4,16.3,26.10,NNW,340,0.0,0.0,12,0.00,,,-99.99,VWS V12.07,2013-07-29 02:49:00,
2013-07-28 19:55:00,71.1,15.9,26.10,NNW,340,0.0,0.0,12,0.00,,,-99.99,VWS V12.07,2013-07-29 02:55:00,
2013-07-28 20:01:00,70.5,15.5,26.10,NNW,340,0.0,0.0,12,0.00,,,-99.99,VWS V12.07,2013-07-29 03:01:00,
2013-07-28 20:07:00,70.0,15.2,26.10,North,354,0.0,0.0,12,0.00,,,-99.99,VWS V12.07,2013-07-29 03:07:00,
2013-07-28 20:13:00,69.8,14.8,26.10,North,355,0.0,0.0,12,0.00,,,-99.99,VWS V12.07,2013-07-29 03:13:00,
2013-07-28 20:19:00,68.9,14.2,26.10,North,355,0.0,0.0,12,0.00,,,-99.99,VWS V12.07,2013-07-29 03:19:00,
2013-07-28 20:25:00,68.5,13.8,26.10,North,355,0.0,0.0,12,0.00,,,-99.99,VWS V12.07,2013-07-29 03:25:00,
2013-07-28 20:31:00,68.4,13.8,26.10,North,355,0.0,0.0,12,0.00,,,-99.99,VWS V12.07,2013-07-29 03:31:00,
2013-07-28 20:39:00,67.8,13.4,26.10,North,355,0.0,0.0,12,0.00,,,-99.99,VWS V12.07,2013-07-29 03:39:00,
2013-07-28 20:45:00,67.1,12.5,26.10,North,355,0.0,0.0,12,0.00,,,-99.99,VWS V12.07,2013-07-29 03:45:00,
2013-07-28 20:53:00,66.6,12.3,26.10,North,355,0.0,0.0,12,0.00,,,-99.99,VWS V12.07,2013-07-29 03:53:00,
2013-07-28 20:59:00,66.0,12.0,26.10,North,355,0.0,0.0,12,0.00,,,-99.99,VWS V12.07,2013-07-29 03:59:00,
2013-07-28 21:01:00,66.0,12.0,26.10,North,355,0.0,0.0,12,0.00,,,-99.99,VWS V12.07,2013-07-29 04:01:00,
2013-07-28 21:03:00,66.0,12.0,26.10,North,355,0.0,0.0,12,0.00,,,-99.99,VWS V12.07,2013-07-29 04:03:00,
2013-07-28 21:09:00,65.5,11.6,26.10,North,355,0.0,0.0,12,0.00,,,-99.99,VWS V12.07,2013-07-29 04:09:00,
2013-07-28 21:11:00,65.5,11.4,26.10,North,355,0.0,0.0,12,0.00,,,-99.99,VWS V12.07,2013-07-29 04:11:00,
2013-07-28 21:13:00,65.3,11.3,26.13,North,355,0.0,0.0,12,0.00,,,-99.99,VWS V12.07,2013-07-29 04:13:00,
2013-07-28 21:19:00,64.9,11.0,26.13,North,355,0.0,0.0,12,0.00,,,-99.99,VWS V12.07,2013-07-29 04:19:00,
2013-07-28 21:25:00,64.4,10.7,26.13,North,355,0.0,0.0,12,0.00,,,-99.99,VWS V12.07,2013-07-29 04:25:00,
2013-07-28 21:31:00,63.9,10.3,26.13,North,355,0.0,0.0,12,0.00,,,-99.99,VWS V12.07,2013-07-29 04:31:00,
2013-07-28 21:37:00,63.5,10.0,26.13,North,355,0.0,0.0,12,0.00,,,-99.99,VWS V12.07,2013-07-29 04:37:00,
2013-07-28 21:43:00,63.1,9.6,26.13,North,355,0.0,0.0,12,0.00,,,-99.99,VWS V12.07,2013-07-29 04:43:00,
2013-07-28 21:49:00,62.6,9.3,26.13,North,355,0.0,0.0,12,0.00,,,-99.99,VWS V12.07,2013-07-29 04:49:00,
2013-07-28 21:55:00,62.4,9.2,26.13,North,355,0.0,0.0,12,0.00,,,-99.99,VWS V12.07,2013-07-29 04:55:00,
2013-07-28 22:01:00,62.2,9.0,26.13,North,355,0.0,0.0,12,0.00,,,-99.99,VWS V12.07,2013-07-29 05:01:00,
2013-07-28 22:07:00,61.9,8.9,26.13,North,355,0.0,0.0,12,0.00,,,-99.99,VWS V12.07,2013-07-29 05:07:00,
2013-07-28 22:13:00,61.5,8.6,26.13,North,355,0.0,0.0,12,0.00,,,-99.99,VWS V12.07,2013-07-29 05:13:00,
2013-07-28 22:19:00,61.0,8.0,26.13,North,355,0.0,0.0,12,0.00,,,-99.99,VWS V12.07,2013-07-29 05:19:00,
2013-07-28 22:25:00,61.0,8.0,26.13,North,355,0.0,0.0,12,0.00,,,-99.99,VWS V12.07,2013-07-29 05:25:00,
2013-07-28 22:31:00,60.6,7.6,26.13,North,355,0.0,0.0,12,0.00,,,-99.99,VWS V12.07,2013-07-29 05:31:00,
2013-07-28 22:37:00,60.6,7.8,26.13,North,355,0.0,0.0,12,0.00,,,-99.99,VWS V12.07,2013-07-29 05:37:00,
2013-07-28 22:43:00,60.6,7.8,26.13,North,355,0.0,0.0,12,0.00,,,-99.99,VWS V12.07,2013-07-29 05:43:00,
2013-07-28 22:49:00,60.3,7.6,26.13,North,355,0.0,0.0,12,0.00,,,-99.99,VWS V12.07,2013-07-29 05:49:00,
2013-07-28 22:55:00,59.9,7.2,26.13,North,355,0.0,0.0,12,0.00,,,-99.99,VWS V12.07,2013-07-29 05:55:00,
2013-07-28 23:01:00,59.9,7.2,26.13,North,355,0.0,0.0,12,0.00,,,-99.99,VWS V12.07,2013-07-29 06:01:00,
2013-07-28 23:07:00,59.7,7.0,26.13,North,355,0.0,0.0,12,0.00,,,-99.99,VWS V12.07,2013-07-29 06:07:00,
2013-07-28 23:13:00,59.5,6.8,26.13,North,355,0.0,0.0,12,0.00,,,-99.99,VWS V12.07,2013-07-29 06:13:00,
2013-07-28 23:19:00,59.4,6.8,26.13,North,355,0.0,0.0,12,0.00,,,-99.99,VWS V12.07,2013-07-29 06:19:00,
2013-07-28 23:25:00,59.0,6.6,26.13,North,355,0.0,0.0,12,0.00,,,-99.99,VWS V12.07,2013-07-29 06:25:00,
2013-07-28 23:31:00,59.2,6.6,26.13,North,354,0.0,0.0,12,0.00,,,-99.99,VWS V12.07,2013-07-29 06:31:00,
2013-07-28 23:37:00,58.5,6.1,26.13,North,355,0.0,0.0,12,0.00,,,-99.99,VWS V12.07,2013-07-29 06:37:00,
2013-07-28 23:43:00,58.3,5.8,26.13,North,355,0.0,0.0,12,0.00,,,-99.99,VWS V12.07,2013-07-29 06:43:00,
2013-07-28 23:49:00,58.1,5.8,26.13,North,355,0.0,0.0,12,0.00,,,-99.99,VWS V12.07,2013-07-29 06:49:00,
2013-07-28 23:55:00,57.9,5.6,26.13,North,355,0.0,0.0,12,0.00,,,-99.99,VWS V12.07,2013-07-29 06:55:00,